Time,TemperatureF,DewpointF,PressureIn,WindDirection,WindDirectionDegrees,WindSpeedMPH,WindSpeedGustMPH,Humidity,HourlyPrecipIn,Conditions,Clouds,dailyrainin,SoftwareType,DateUTC
2013-01-29 00:01:00,66.4,64.6,30.22,SE,126,0.0,5.0,94,0.00,,,0.00,meteohub,2013-01-29 05:01:00,
2013-01-29 00:03:00,66.4,64.6,30.21,SE,126,0.0,5.0,94,0.00,,,0.00,meteohub,2013-01-29 05:03:00,
2013-01-29 00:04:00,66.4,64.6,30.21,ESE,107,1.0,5.0,94,0.00,,,0.00,meteohub,2013-01-29 05:04:00,
2013-01-29 00:10:00,66.6,64.8,30.22,ESE,109,2.0,5.0,94,0.00,,,0.00,meteohub,2013-01-29 05:10:00,
2013-01-29 00:12:00,66.6,64.8,30.22,ESE,108,0.0,4.0,94,0.00,,,0.00,meteohub,2013-01-29 05:12:00,
2013-01-29 00:17:00,66.6,64.4,30.22,SE,130,1.0,2.0,93,0.00,,,0.00,meteohub,2013-01-29 05:17:00,
2013-01-29 00:22:00,66.6,64.8,30.21,SE,127,0.0,3.0,94,0.00,,,0.00,meteohub,2013-01-29 05:22:00,
2013-01-29 00:27:00,66.6,64.8,30.21,SE,137,1.0,4.0,94,0.00,,,0.00,meteohub,2013-01-29 05:27:00,
2013-01-29 00:32:00,66.6,64.8,30.21,ENE,69,0.0,4.0,94,0.00,,,0.00,meteohub,2013-01-29 05:32:00,
2013-01-29 00:37:00,66.6,64.4,30.21,East,90,1.0,4.0,93,0.00,,,0.00,meteohub,2013-01-29 05:37:00,
2013-01-29 00:42:00,66.7,64.6,30.21,SE,139,0.0,4.0,93,0.00,,,0.00,meteohub,2013-01-29 05:42:00,
2013-01-29 00:47:00,66.6,64.4,30.21,ESE,114,1.0,7.0,93,0.00,,,0.00,meteohub,2013-01-29 05:47:00,
2013-01-29 00:52:00,66.6,64.4,30.21,ESE,123,1.0,7.0,93,0.00,,,0.00,meteohub,2013-01-29 05:52:00,
2013-01-29 00:57:00,66.6,64.4,30.21,ESE,121,0.0,5.0,93,0.00,,,0.00,meteohub,2013-01-29 05:57:00,
2013-01-29 01:02:00,66.6,64.4,30.20,ESE,119,2.0,5.0,93,0.00,,,0.00,meteohub,2013-01-29 06:02:00,
2013-01-29 01:07:00,66.4,64.2,30.20,SE,127,1.0,8.0,93,0.00,,,0.00,meteohub,2013-01-29 06:07:00,
2013-01-29 01:12:00,66.6,64.8,30.20,SSE,153,4.0,8.0,94,0.00,,,0.00,meteohub,2013-01-29 06:12:00,
2013-01-29 01:17:00,66.4,64.6,30.20,ESE,123,1.0,8.0,94,0.00,,,0.00,meteohub,2013-01-29 06:17:00,
2013-01-29 01:22:00,66.4,64.6,30.20,ESE,119,2.0,5.0,94,0.00,,,0.00,meteohub,2013-01-29 06:22:00,
2013-01-29 01:27:00,66.4,64.6,30.20,SE,132,2.0,5.0,94,0.00,,,0.00,meteohub,2013-01-29 06:27:00,
2013-01-29 01:32:00,66.4,64.6,30.20,East,101,0.0,5.0,94,0.00,,,0.00,meteohub,2013-01-29 06:32:00,
2013-01-29 01:37:00,66.4,64.6,30.20,SSE,155,0.0,5.0,94,0.00,,,0.00,meteohub,2013-01-29 06:37:00,
2013-01-29 01:42:00,66.4,64.6,30.19,SE,142,0.0,7.0,94,0.00,,,0.00,meteohub,2013-01-29 06:42:00,
2013-01-29 01:47:00,66.2,64.4,30.19,SE,142,1.0,8.0,94,0.00,,,0.00,meteohub,2013-01-29 06:47:00,
2013-01-29 01:52:00,66.2,64.4,30.19,ESE,110,1.0,8.0,94,0.00,,,0.00,meteohub,2013-01-29 06:52:00,
2013-01-29 01:57:00,66.2,64.4,30.19,SE,128,0.0,8.0,94,0.00,,,0.00,meteohub,2013-01-29 06:57:00,
2013-01-29 02:02:00,66.2,64.4,30.19,SE,130,3.0,7.0,94,0.00,,,0.00,meteohub,2013-01-29 07:02:00,
2013-01-29 02:07:00,66.0,64.2,30.19,ESE,123,2.0,6.0,94,0.00,,,0.00,meteohub,2013-01-29 07:07:00,
2013-01-29 02:12:00,66.0,64.2,30.18,SE,132,1.0,6.0,94,0.00,,,0.00,meteohub,2013-01-29 07:12:00,
2013-01-29 02:17:00,66.0,64.2,30.18,SSW,200,2.0,6.0,94,0.00,,,0.00,meteohub,2013-01-29 07:17:00,
2013-01-29 02:22:00,65.8,64.0,30.18,SSE,153,0.0,6.0,94,0.00,,,0.00,meteohub,2013-01-29 07:22:00,
2013-01-29 02:27:00,65.8,64.0,30.18,ESE,112,0.0,6.0,94,0.00,,,0.00,meteohub,2013-01-29 07:27:00,
2013-01-29 02:32:00,65.7,63.5,30.18,SE,146,3.0,6.0,93,0.00,,,0.00,meteohub,2013-01-29 07:32:00,
2013-01-29 02:37:00,65.7,63.5,30.18,SE,126,3.0,7.0,93,0.00,,,0.00,meteohub,2013-01-29 07:37:00,
2013-01-29 02:42:00,65.5,63.7,30.18,ESE,123,1.0,7.0,94,0.00,,,0.00,meteohub,2013-01-29 07:42:00,
2013-01-29 02:47:00,65.5,63.7,30.18,ESE,115,1.0,7.0,94,0.00,,,0.00,meteohub,2013-01-29 07:47:00,
2013-01-29 02:52:00,65.3,63.5,30.18,ESE,121,0.0,4.0,94,0.00,,,0.00,meteohub,2013-01-29 07:52:00,
2013-01-29 02:57:00,65.3,63.5,30.18,ESE,121,0.0,4.0,94,0.00,,,0.00,meteohub,2013-01-29 07:57:00,
2013-01-29 03:02:00,65.1,63.3,30.18,SE,134,0.0,4.0,94,0.00,,,0.00,meteohub,2013-01-29 08:02:00,
2013-01-29 03:07:00,65.1,63.3,30.18,SE,134,0.0,4.0,94,0.00,,,0.00,meteohub,2013-01-29 08:07:00,
2013-01-29 03:12:00,64.9,63.1,30.18,SE,134,0.0,3.0,94,0.00,,,0.00,meteohub,2013-01-29 08:12:00,
2013-01-29 03:17:00,64.9,63.1,30.19,SE,134,1.0,3.0,94,0.00,,,0.00,meteohub,2013-01-29 08:17:00,
2013-01-29 03:22:00,64.9,63.5,30.18,SE,134,0.0,1.0,95,0.00,,,0.00,meteohub,2013-01-29 08:22:00,
2013-01-29 03:27:00,64.9,63.5,30.18,SE,140,0.0,1.0,95,0.00,,,0.00,meteohub,2013-01-29 08:27:00,
2013-01-29 03:32:00,64.8,63.3,30.18,SE,140,1.0,3.0,95,0.00,,,0.00,meteohub,2013-01-29 08:32:00,
2013-01-29 03:37:00,64.8,63.3,30.19,SE,140,1.0,3.0,95,0.00,,,0.00,meteohub,2013-01-29 08:37:00,
2013-01-29 03:42:00,64.8,63.3,30.19,SE,140,0.0,2.0,95,0.00,,,0.00,meteohub,2013-01-29 08:42:00,
2013-01-29 03:47:00,64.6,63.1,30.19,SE,140,0.0,2.0,95,0.00,,,0.00,meteohub,2013-01-29 08:47:00,
2013-01-29 03:52:00,64.6,63.1,30.19,SE,140,0.0,2.0,95,0.00,,,0.00,meteohub,2013-01-29 08:52:00,
2013-01-29 03:57:00,64.2,62.8,30.18,SE,140,0.0,2.0,95,0.00,,,0.00,meteohub,2013-01-29 08:57:00,
2013-01-29 04:02:00,64.2,62.8,30.18,SE,140,0.0,1.0,95,0.00,,,0.00,meteohub,2013-01-29 09:02:00,
2013-01-29 04:07:00,64.0,62.6,30.18,SE,140,0.0,1.0,95,0.00,,,0.00,meteohub,2013-01-29 09:07:00,
2013-01-29 04:12:00,64.0,62.6,30.18,SE,140,0.0,1.0,95,0.00,,,0.00,meteohub,2013-01-29 09:12:00,
2013-01-29 04:17:00,64.0,62.6,30.18,SE,140,0.0,1.0,95,0.00,,,0.00,meteohub,2013-01-29 09:17:00,
2013-01-29 04:22:00,64.0,63.0,30.18,SE,140,0.0,1.0,96,0.00,,,0.00,meteohub,2013-01-29 09:22:00,
2013-01-29 04:27:00,64.0,63.0,30.18,SE,140,0.0,1.0,96,0.00,,,0.00,meteohub,2013-01-29 09:27:00,
2013-01-29 04:32:00,64.0,63.0,30.18,SE,140,0.0,1.0,96,0.01,,,0.01,meteohub,2013-01-29 09:32:00,
2013-01-29 04:37:00,64.0,63.0,30.18,SE,140,0.0,1.0,96,0.01,,,0.01,meteohub,2013-01-29 09:37:00,
2013-01-29 04:42:00,63.9,62.8,30.18,SE,140,0.0,1.0,96,0.01,,,0.01,meteohub,2013-01-29 09:42:00,
2013-01-29 04:47:00,63.9,62.8,30.18,SE,140,0.0,1.0,96,0.01,,,0.01,meteohub,2013-01-29 09:47:00,
2013-01-29 04:52:00,63.7,62.6,30.18,SE,140,0.0,1.0,96,0.01,,,0.01,meteohub,2013-01-29 09:52:00,
2013-01-29 04:57:00,63.7,62.6,30.18,SE,140,0.0,1.0,96,0.01,,,0.01,meteohub,2013-01-29 09:57:00,
2013-01-29 05:02:00,63.5,62.4,30.18,SE,140,0.0,2.0,96,0.01,,,0.01,meteohub,2013-01-29 10:02:00,
2013-01-29 05:07:00,63.5,62.4,30.18,SE,140,0.0,2.0,96,0.01,,,0.01,meteohub,2013-01-29 10:07:00,
2013-01-29 05:12:00,63.5,62.4,30.18,SE,140,2.0,2.0,96,0.01,,,0.01,meteohub,2013-01-29 10:12:00,
2013-01-29 05:17:00,63.7,62.6,30.18,SE,140,0.0,2.0,96,0.01,,,0.01,meteohub,2013-01-29 10:17:00,
2013-01-29 05:22:00,63.5,62.4,30.18,SE,140,0.0,2.0,96,0.01,,,0.01,meteohub,2013-01-29 10:22:00,
2013-01-29 05:27:00,63.5,62.4,30.18,SE,140,0.0,2.0,96,0.00,,,0.01,meteohub,2013-01-29 10:27:00,
2013-01-29 05:32:00,63.3,62.2,30.18,SE,140,0.0,1.0,96,0.00,,,0.01,meteohub,2013-01-29 10:32:00,
2013-01-29 05:37:00,63.7,62.8,30.19,SE,142,0.0,3.0,97,0.00,,,0.01,meteohub,2013-01-29 10:37:00,
2013-01-29 05:42:00,63.7,62.8,30.19,SE,143,0.0,3.0,97,0.00,,,0.01,meteohub,2013-01-29 10:42:00,
2013-01-29 05:47:00,63.7,62.8,30.19,SE,142,0.0,3.0,97,0.00,,,0.01,meteohub,2013-01-29 10:47:00,
2013-01-29 05:52:00,63.7,62.8,30.19,SE,142,0.0,2.0,97,0.00,,,0.01,meteohub,2013-01-29 10:52:00,
2013-01-29 05:57:00,63.3,62.2,30.19,SE,142,1.0,2.0,96,0.00,,,0.01,meteohub,2013-01-29 10:57:00,
2013-01-29 06:02:00,63.3,62.2,30.19,SE,142,0.0,1.0,96,0.00,,,0.01,meteohub,2013-01-29 11:02:00,
2013-01-29 06:07:00,63.1,62.2,30.19,SE,142,1.0,2.0,97,0.00,,,0.01,meteohub,2013-01-29 11:07:00,
2013-01-29 06:12:00,63.1,62.2,30.19,SE,142,0.0,2.0,97,0.00,,,0.01,meteohub,2013-01-29 11:12:00,
2013-01-29 06:17:00,63.1,62.1,30.19,SE,142,0.0,2.0,96,0.00,,,0.01,meteohub,2013-01-29 11:17:00,
2013-01-29 06:24:00,63.0,62.1,30.19,SE,142,0.0,2.0,97,0.00,,,0.01,meteohub,2013-01-29 11:24:00,
2013-01-29 06:30:00,63.0,62.1,30.19,SE,143,1.0,2.0,97,0.00,,,0.01,meteohub,2013-01-29 11:30:00,
2013-01-29 06:36:00,63.0,62.1,30.19,SE,124,1.0,2.0,97,0.00,,,0.01,meteohub,2013-01-29 11:36:00,
2013-01-29 06:42:00,63.1,62.2,30.19,SE,124,1.0,2.0,97,0.00,,,0.01,meteohub,2013-01-29 11:42:00,
2013-01-29 06:47:00,63.1,62.2,30.19,East,96,1.0,3.0,97,0.00,,,0.01,meteohub,2013-01-29 11:47:00,
2013-01-29 06:52:00,63.1,62.2,30.19,ENE,70,2.0,3.0,97,0.00,,,0.01,meteohub,2013-01-29 11:52:00,
2013-01-29 06:57:00,63.1,62.2,30.19,East,90,0.0,4.0,97,0.00,,,0.01,meteohub,2013-01-29 11:57:00,
2013-01-29 07:02:00,63.1,62.2,30.19,East,88,2.0,4.0,97,0.00,,,0.01,meteohub,2013-01-29 12:02:00,
2013-01-29 07:07:00,63.1,62.2,30.20,ENE,71,3.0,4.0,97,0.00,,,0.01,meteohub,2013-01-29 12:07:00,
2013-01-29 07:12:00,63.0,62.1,30.20,NE,48,3.0,3.0,97,0.00,,,0.01,meteohub,2013-01-29 12:12:00,
2013-01-29 07:17:00,63.0,62.1,30.20,ENE,59,3.0,4.0,97,0.00,,,0.01,meteohub,2013-01-29 12:17:00,
2013-01-29 07:22:00,63.0,62.1,30.20,SE,124,2.0,5.0,97,0.00,,,0.01,meteohub,2013-01-29 12:22:00,
2013-01-29 07:27:00,63.0,62.1,30.20,East,94,2.0,5.0,97,0.00,,,0.01,meteohub,2013-01-29 12:27:00,
2013-01-29 07:32:00,63.1,62.6,30.20,East,95,0.0,5.0,98,0.00,,,0.01,meteohub,2013-01-29 12:32:00,
2013-01-29 07:37:00,63.3,62.8,30.20,ESE,112,1.0,5.0,98,0.00,,,0.01,meteohub,2013-01-29 12:37:00,
2013-01-29 07:42:00,63.7,63.1,30.20,East,87,1.0,5.0,98,0.00,,,0.01,meteohub,2013-01-29 12:42:00,
2013-01-29 07:47:00,63.9,63.3,30.20,SSE,148,1.0,5.0,98,0.00,,,0.01,meteohub,2013-01-29 12:47:00,
2013-01-29 07:52:00,63.9,63.3,30.21,SE,128,2.0,5.0,98,0.00,,,0.01,meteohub,2013-01-29 12:52:00,
2013-01-29 07:57:00,64.0,63.5,30.21,SSE,151,1.0,4.0,98,0.00,,,0.01,meteohub,2013-01-29 12:57:00,
2013-01-29 08:02:00,64.2,63.7,30.21,SE,144,3.0,4.0,98,0.00,,,0.01,meteohub,2013-01-29 13:02:00,
2013-01-29 08:07:00,64.2,63.7,30.21,ESE,113,1.0,4.0,98,0.00,,,0.01,meteohub,2013-01-29 13:07:00,
2013-01-29 08:12:00,64.4,63.9,30.21,SE,128,0.0,4.0,98,0.00,,,0.01,meteohub,2013-01-29 13:12:00,
2013-01-29 08:17:00,64.6,64.0,30.21,SE,126,1.0,5.0,98,0.00,,,0.01,meteohub,2013-01-29 13:17:00,
2013-01-29 08:22:00,64.8,64.2,30.21,East,91,2.0,5.0,98,0.00,,,0.01,meteohub,2013-01-29 13:22:00,
2013-01-29 08:27:00,64.9,64.4,30.21,ESE,108,0.0,5.0,98,0.00,,,0.01,meteohub,2013-01-29 13:27:00,
2013-01-29 08:32:00,65.1,64.6,30.21,ESE,115,2.0,5.0,98,0.00,,,0.01,meteohub,2013-01-29 13:32:00,
2013-01-29 08:37:00,65.1,64.6,30.21,ESE,117,2.0,3.0,98,0.00,,,0.01,meteohub,2013-01-29 13:37:00,
2013-01-29 08:42:00,65.5,64.9,30.21,ESE,121,2.0,3.0,98,0.00,,,0.01,meteohub,2013-01-29 13:42:00,
2013-01-29 08:47:00,65.5,64.9,30.21,ENE,72,2.0,6.0,98,0.00,,,0.01,meteohub,2013-01-29 13:47:00,
2013-01-29 08:52:00,65.7,65.1,30.21,East,93,0.0,6.0,98,0.00,,,0.01,meteohub,2013-01-29 13:52:00,
2013-01-29 08:57:00,65.8,65.3,30.22,SE,141,0.0,5.0,98,0.00,,,0.01,meteohub,2013-01-29 13:57:00,
2013-01-29 09:02:00,65.8,65.3,30.21,NNE,12,1.0,5.0,98,0.00,,,0.01,meteohub,2013-01-29 14:02:00,
2013-01-29 09:07:00,66.0,65.5,30.21,NE,42,0.0,5.0,98,0.00,,,0.01,meteohub,2013-01-29 14:07:00,
2013-01-29 09:12:00,66.0,65.5,30.21,SE,127,2.0,7.0,98,0.00,,,0.01,meteohub,2013-01-29 14:12:00,
2013-01-29 09:17:00,66.2,65.7,30.21,ESE,113,4.0,7.0,98,0.00,,,0.01,meteohub,2013-01-29 14:17:00,
2013-01-29 09:22:00,66.2,65.7,30.21,SE,136,0.0,8.0,98,0.00,,,0.01,meteohub,2013-01-29 14:22:00,
2013-01-29 09:27:00,66.2,65.7,30.21,ESE,103,3.0,8.0,98,0.00,,,0.01,meteohub,2013-01-29 14:27:00,
2013-01-29 09:32:00,66.4,65.8,30.21,East,87,1.0,8.0,98,0.00,,,0.01,meteohub,2013-01-29 14:32:00,
2013-01-29 09:37:00,66.6,66.0,30.21,SSE,152,2.0,8.0,98,0.00,,,0.01,meteohub,2013-01-29 14:37:00,
2013-01-29 09:42:00,66.7,66.2,30.21,SE,132,6.0,6.0,98,0.00,,,0.01,meteohub,2013-01-29 14:42:00,
2013-01-29 09:47:00,66.7,66.2,30.21,SE,134,1.0,7.0,98,0.00,,,0.01,meteohub,2013-01-29 14:47:00,
2013-01-29 09:52:00,66.9,66.4,30.21,East,101,6.0,8.0,98,0.00,,,0.01,meteohub,2013-01-29 14:52:00,
2013-01-29 09:57:00,67.3,66.7,30.20,ESE,114,0.0,9.0,98,0.00,,,0.01,meteohub,2013-01-29 14:57:00,
2013-01-29 10:02:00,67.8,67.3,30.20,ESE,104,0.0,9.0,98,0.00,,,0.01,meteohub,2013-01-29 15:02:00,
2013-01-29 10:07:00,68.4,67.5,30.20,ESE,105,4.0,9.0,97,0.00,,,0.01,meteohub,2013-01-29 15:07:00,
2013-01-29 10:12:00,68.5,67.1,30.20,ENE,57,1.0,7.0,95,0.00,,,0.01,meteohub,2013-01-29 15:12:00,
2013-01-29 10:17:00,69.1,67.3,30.20,ENE,58,4.0,7.0,94,0.00,,,0.01,meteohub,2013-01-29 15:17:00,
2013-01-29 10:22:00,69.3,66.9,30.20,SE,131,3.0,9.0,92,0.00,,,0.01,meteohub,2013-01-29 15:22:00,
2013-01-29 10:27:00,69.6,66.9,30.20,SE,133,3.0,9.0,91,0.00,,,0.01,meteohub,2013-01-29 15:27:00,
2013-01-29 10:32:00,70.2,67.5,30.19,SE,135,4.0,9.0,91,0.00,,,0.01,meteohub,2013-01-29 15:32:00,
2013-01-29 10:37:00,70.3,66.9,30.19,ENE,68,2.0,10.0,89,0.00,,,0.01,meteohub,2013-01-29 15:37:00,
2013-01-29 10:42:00,70.7,67.3,30.19,ESE,115,3.0,10.0,89,0.00,,,0.01,meteohub,2013-01-29 15:42:00,
2013-01-29 10:47:00,71.2,67.5,30.19,ESE,107,2.0,10.0,88,0.00,,,0.01,meteohub,2013-01-29 15:47:00,
2013-01-29 10:52:00,71.8,68.0,30.19,SE,124,1.0,9.0,88,0.00,,,0.01,meteohub,2013-01-29 15:52:00,
2013-01-29 10:57:00,72.5,68.4,30.19,ESE,109,7.0,9.0,87,0.00,,,0.01,meteohub,2013-01-29 15:57:00,
2013-01-29 11:02:00,72.9,68.0,30.18,SE,124,4.0,9.0,85,0.00,,,0.01,meteohub,2013-01-29 16:02:00,
2013-01-29 11:07:00,72.9,68.0,30.18,ESE,107,0.0,11.0,85,0.00,,,0.01,meteohub,2013-01-29 16:07:00,
2013-01-29 11:12:00,73.2,68.2,30.18,East,88,2.0,11.0,84,0.00,,,0.01,meteohub,2013-01-29 16:12:00,
2013-01-29 11:17:00,73.6,68.4,30.18,WSW,242,2.0,11.0,84,0.00,,,0.01,meteohub,2013-01-29 16:17:00,
2013-01-29 11:22:00,73.9,68.4,30.18,ENE,71,1.0,9.0,83,0.00,,,0.01,meteohub,2013-01-29 16:22:00,
2013-01-29 11:27:00,74.7,68.7,30.18,South,175,0.0,9.0,82,0.00,,,0.01,meteohub,2013-01-29 16:27:00,
2013-01-29 11:32:00,75.0,68.7,30.17,SE,144,2.0,9.0,81,0.00,,,0.01,meteohub,2013-01-29 16:32:00,
2013-01-29 11:37:00,75.7,69.1,30.17,South,182,3.0,9.0,80,0.00,,,0.01,meteohub,2013-01-29 16:37:00,
2013-01-29 11:44:00,76.3,69.3,30.17,SE,132,3.0,9.0,79,0.00,,,0.01,meteohub,2013-01-29 16:44:00,
2013-01-29 11:50:00,76.8,68.7,30.16,ESE,112,7.0,9.0,76,0.00,,,0.01,meteohub,2013-01-29 16:50:00,
2013-01-29 11:56:00,76.8,69.1,30.16,SE,139,2.0,11.0,77,0.00,,,0.01,meteohub,2013-01-29 16:56:00,
2013-01-29 12:02:00,76.6,68.9,30.16,East,90,5.0,11.0,77,0.00,,,0.01,meteohub,2013-01-29 17:02:00,
2013-01-29 12:07:00,76.6,69.3,30.15,ENE,68,1.0,11.0,78,0.00,,,0.01,meteohub,2013-01-29 17:07:00,
2013-01-29 12:12:00,76.8,68.7,30.15,East,92,3.0,8.0,76,0.00,,,0.01,meteohub,2013-01-29 17:12:00,
2013-01-29 12:17:00,77.0,68.9,30.14,East,89,3.0,8.0,76,0.00,,,0.01,meteohub,2013-01-29 17:17:00,
2013-01-29 12:22:00,77.4,68.9,30.14,ESE,112,1.0,8.0,75,0.00,,,0.01,meteohub,2013-01-29 17:22:00,
2013-01-29 12:27:00,77.7,68.7,30.14,ENE,74,2.0,8.0,74,0.00,,,0.01,meteohub,2013-01-29 17:27:00,
2013-01-29 12:32:00,78.1,69.1,30.14,SE,131,4.0,10.0,74,0.00,,,0.01,meteohub,2013-01-29 17:32:00,
2013-01-29 12:37:00,78.3,68.9,30.14,ENE,76,4.0,10.0,73,0.00,,,0.01,meteohub,2013-01-29 17:37:00,
2013-01-29 12:42:00,78.3,68.5,30.14,SSE,155,3.0,9.0,72,0.00,,,0.01,meteohub,2013-01-29 17:42:00,
2013-01-29 12:47:00,77.7,68.4,30.13,NE,52,4.0,9.0,73,0.00,,,0.01,meteohub,2013-01-29 17:47:00,
2013-01-29 12:52:00,78.3,68.9,30.13,East,101,1.0,9.0,73,0.00,,,0.01,meteohub,2013-01-29 17:52:00,
2013-01-29 12:57:00,79.0,68.7,30.13,SE,133,1.0,9.0,71,0.00,,,0.01,meteohub,2013-01-29 17:57:00,
2013-01-29 13:02:00,79.3,68.7,30.12,East,90,1.0,6.0,70,0.00,,,0.01,meteohub,2013-01-29 18:02:00,
2013-01-29 13:07:00,78.8,68.2,30.12,ENE,67,3.0,6.0,70,0.00,,,0.01,meteohub,2013-01-29 18:07:00,
2013-01-29 13:12:00,79.0,68.4,30.12,SSE,148,4.0,7.0,70,0.00,,,0.01,meteohub,2013-01-29 18:12:00,
2013-01-29 13:17:00,79.3,68.4,30.12,SE,134,5.0,8.0,69,0.00,,,0.01,meteohub,2013-01-29 18:17:00,
2013-01-29 13:22:00,79.5,68.5,30.11,ENE,70,9.0,9.0,69,0.00,,,0.01,meteohub,2013-01-29 18:22:00,
2013-01-29 13:27:00,80.1,67.6,30.11,ENE,74,5.0,10.0,66,0.00,,,0.01,meteohub,2013-01-29 18:27:00,
2013-01-29 13:32:00,80.2,67.5,30.11,SE,136,8.0,10.0,65,0.00,,,0.01,meteohub,2013-01-29 18:32:00,
2013-01-29 13:37:00,80.1,67.6,30.10,ESE,113,3.0,10.0,66,0.00,,,0.01,meteohub,2013-01-29 18:37:00,
2013-01-29 13:42:00,80.2,67.5,30.10,SSE,154,3.0,9.0,65,0.00,,,0.01,meteohub,2013-01-29 18:42:00,
2013-01-29 13:47:00,81.0,67.6,30.10,ESE,110,5.0,9.0,64,0.00,,,0.01,meteohub,2013-01-29 18:47:00,
2013-01-29 13:52:00,81.5,67.6,30.10,SE,138,1.0,8.0,63,0.00,,,0.01,meteohub,2013-01-29 18:52:00,
2013-01-29 13:57:00,81.7,67.8,30.10,ESE,123,1.0,8.0,63,0.00,,,0.01,meteohub,2013-01-29 18:57:00,
2013-01-29 14:02:00,82.0,67.6,30.10,ESE,108,0.0,8.0,62,0.00,,,0.01,meteohub,2013-01-29 19:02:00,
2013-01-29 14:07:00,83.1,67.3,30.10,SE,144,5.0,8.0,59,0.00,,,0.01,meteohub,2013-01-29 19:07:00,
2013-01-29 14:12:00,83.8,66.4,30.10,South,191,4.0,7.0,56,0.00,,,0.01,meteohub,2013-01-29 19:12:00,
2013-01-29 14:17:00,84.6,66.6,30.09,SSE,157,2.0,9.0,55,0.00,,,0.01,meteohub,2013-01-29 19:17:00,
2013-01-29 14:22:00,84.4,65.8,30.09,WSW,244,6.0,10.0,54,0.00,,,0.01,meteohub,2013-01-29 19:22:00,
2013-01-29 14:30:00,83.3,65.5,30.09,SE,140,3.0,10.0,55,0.00,,,0.01,meteohub,2013-01-29 19:30:00,
2013-01-29 14:36:00,82.6,66.7,30.09,West,280,5.0,12.0,59,0.00,,,0.01,meteohub,2013-01-29 19:36:00,
2013-01-29 14:42:00,81.7,67.5,30.09,SW,220,8.0,16.0,62,0.00,,,0.01,meteohub,2013-01-29 19:42:00,
2013-01-29 14:47:00,81.3,67.1,30.09,WSW,244,8.0,16.0,62,0.00,,,0.01,meteohub,2013-01-29 19:47:00,
2013-01-29 14:52:00,80.2,66.9,30.09,WSW,250,6.0,16.0,64,0.00,,,0.01,meteohub,2013-01-29 19:52:00,
2013-01-29 14:57:00,80.4,67.1,30.08,South,178,7.0,14.0,64,0.00,,,0.01,meteohub,2013-01-29 19:57:00,
2013-01-29 15:02:00,81.0,67.1,30.09,SSW,201,6.0,14.0,63,0.00,,,0.01,meteohub,2013-01-29 20:02:00,
2013-01-29 15:07:00,80.4,66.7,30.09,West,274,4.0,11.0,63,0.00,,,0.01,meteohub,2013-01-29 20:07:00,
2013-01-29 15:12:00,80.2,66.6,30.08,South,190,3.0,12.0,63,0.00,,,0.01,meteohub,2013-01-29 20:12:00,
2013-01-29 15:15:00,80.1,66.4,30.08,SW,218,4.0,12.0,63,0.00,,,0.01,meteohub,2013-01-29 20:15:00,
2013-01-29 15:21:00,79.7,66.4,30.08,SW,232,5.0,13.0,64,0.00,,,0.01,meteohub,2013-01-29 20:21:00,
2013-01-29 15:27:00,79.9,66.2,30.08,SSW,207,5.0,13.0,63,0.00,,,0.01,meteohub,2013-01-29 20:27:00,
2013-01-29 15:32:00,79.3,65.7,30.08,SW,219,5.0,13.0,63,0.00,,,0.01,meteohub,2013-01-29 20:32:00,
2013-01-29 15:37:00,79.0,65.8,30.08,South,179,5.0,13.0,64,0.00,,,0.01,meteohub,2013-01-29 20:37:00,
2013-01-29 15:42:00,78.6,65.8,30.08,SW,229,6.0,13.0,65,0.00,,,0.01,meteohub,2013-01-29 20:42:00,
2013-01-29 15:47:00,78.3,66.4,30.08,NW,317,4.0,12.0,67,0.00,,,0.01,meteohub,2013-01-29 20:47:00,
2013-01-29 15:52:00,78.1,66.2,30.08,West,281,6.0,13.0,67,0.00,,,0.01,meteohub,2013-01-29 20:52:00,
2013-01-29 15:57:00,77.9,66.6,30.08,South,178,6.0,13.0,68,0.00,,,0.01,meteohub,2013-01-29 20:57:00,
2013-01-29 16:02:00,78.1,66.7,30.08,West,277,5.0,13.0,68,0.00,,,0.01,meteohub,2013-01-29 21:02:00,
2013-01-29 16:07:00,77.9,66.6,30.08,WSW,252,4.0,13.0,68,0.00,,,0.01,meteohub,2013-01-29 21:07:00,
2013-01-29 16:12:00,78.1,67.1,30.08,West,269,6.0,11.0,69,0.00,,,0.01,meteohub,2013-01-29 21:12:00,
2013-01-29 16:17:00,78.3,66.7,30.08,SW,232,4.0,11.0,68,0.00,,,0.01,meteohub,2013-01-29 21:17:00,
2013-01-29 16:22:00,77.5,66.9,30.08,WSW,244,5.0,10.0,70,0.00,,,0.01,meteohub,2013-01-29 21:22:00,
2013-01-29 16:27:00,77.0,66.9,30.09,SW,227,6.0,10.0,71,0.00,,,0.01,meteohub,2013-01-29 21:27:00,
2013-01-29 16:32:00,76.8,67.1,30.09,SSW,209,6.0,10.0,72,0.00,,,0.01,meteohub,2013-01-29 21:32:00,
2013-01-29 16:37:00,76.6,66.9,30.09,SSW,209,2.0,10.0,72,0.00,,,0.01,meteohub,2013-01-29 21:37:00,
2013-01-29 16:42:00,76.3,66.9,30.09,SW,223,3.0,9.0,73,0.00,,,0.01,meteohub,2013-01-29 21:42:00,
2013-01-29 16:47:00,75.9,66.6,30.09,South,172,7.0,9.0,73,0.00,,,0.01,meteohub,2013-01-29 21:47:00,
2013-01-29 16:52:00,75.6,66.7,30.08,West,259,6.0,9.0,74,0.00,,,0.01,meteohub,2013-01-29 21:52:00,
2013-01-29 16:57:00,75.6,66.7,30.08,West,268,3.0,8.0,74,0.00,,,0.01,meteohub,2013-01-29 21:57:00,
2013-01-29 17:02:00,75.4,66.6,30.08,West,269,3.0,9.0,74,0.00,,,0.01,meteohub,2013-01-29 22:02:00,
2013-01-29 17:07:00,75.4,66.6,30.08,WSW,248,3.0,9.0,74,0.00,,,0.01,meteohub,2013-01-29 22:07:00,
2013-01-29 17:12:00,75.2,66.4,30.08,West,269,3.0,9.0,74,0.00,,,0.01,meteohub,2013-01-29 22:12:00,
2013-01-29 17:17:00,75.2,66.4,30.08,SW,224,1.0,8.0,74,0.00,,,0.01,meteohub,2013-01-29 22:17:00,
2013-01-29 17:22:00,75.4,66.6,30.08,South,187,1.0,7.0,74,0.00,,,0.01,meteohub,2013-01-29 22:22:00,
2013-01-29 17:27:00,75.4,66.2,30.08,SW,232,2.0,6.0,73,0.00,,,0.01,meteohub,2013-01-29 22:27:00,
2013-01-29 17:32:00,75.0,66.2,30.08,SW,220,4.0,7.0,74,0.00,,,0.01,meteohub,2013-01-29 22:32:00,
2013-01-29 17:37:00,74.8,66.0,30.08,South,191,5.0,7.0,74,0.00,,,0.01,meteohub,2013-01-29 22:37:00,
2013-01-29 17:43:00,74.7,65.8,30.08,SW,221,4.0,7.0,74,0.00,,,0.01,meteohub,2013-01-29 22:43:00,
2013-01-29 17:49:00,74.7,65.8,30.08,SW,218,2.0,8.0,74,0.00,,,0.01,meteohub,2013-01-29 22:49:00,
2013-01-29 17:55:00,74.5,65.7,30.08,SSW,206,3.0,8.0,74,0.00,,,0.01,meteohub,2013-01-29 22:55:00,
2013-01-29 18:01:00,74.3,65.5,30.08,West,274,4.0,7.0,74,0.00,,,0.01,meteohub,2013-01-29 23:01:00,
2013-01-29 18:07:00,74.1,65.3,30.08,WSW,238,2.0,7.0,74,0.00,,,0.01,meteohub,2013-01-29 23:07:00,
2013-01-29 18:12:00,74.1,65.3,30.08,SSW,204,3.0,8.0,74,0.00,,,0.01,meteohub,2013-01-29 23:12:00,
2013-01-29 18:17:00,73.9,65.1,30.08,WSW,241,3.0,8.0,74,0.00,,,0.01,meteohub,2013-01-29 23:17:00,
2013-01-29 18:22:00,74.1,64.9,30.08,WSW,250,3.0,8.0,73,0.00,,,0.01,meteohub,2013-01-29 23:22:00,
2013-01-29 18:27:00,74.1,64.9,30.08,SW,229,3.0,8.0,73,0.00,,,0.01,meteohub,2013-01-29 23:27:00,
2013-01-29 18:32:00,74.1,65.3,30.08,West,260,2.0,6.0,74,0.00,,,0.01,meteohub,2013-01-29 23:32:00,
2013-01-29 18:37:00,74.1,65.3,30.08,SW,226,5.0,9.0,74,0.00,,,0.01,meteohub,2013-01-29 23:37:00,
2013-01-29 18:42:00,73.9,65.1,30.08,WSW,238,3.0,9.0,74,0.00,,,0.01,meteohub,2013-01-29 23:42:00,
2013-01-29 18:47:00,73.8,65.3,30.08,SSE,150,5.0,9.0,75,0.00,,,0.01,meteohub,2013-01-29 23:47:00,
2013-01-29 18:52:00,73.8,65.3,30.08,SSW,210,4.0,9.0,75,0.00,,,0.01,meteohub,2013-01-29 23:52:00,
2013-01-29 18:57:00,73.6,65.5,30.08,West,265,1.0,9.0,76,0.00,,,0.01,meteohub,2013-01-29 23:57:00,
2013-01-29 19:02:00,73.6,65.5,30.08,SSW,205,4.0,9.0,76,0.00,,,0.01,meteohub,2013-01-30 00:02:00,
2013-01-29 19:07:00,73.6,65.5,30.07,SW,224,4.0,10.0,76,0.00,,,0.01,meteohub,2013-01-30 00:07:00,
2013-01-29 19:12:00,73.6,65.5,30.07,SW,223,6.0,10.0,76,0.00,,,0.01,meteohub,2013-01-30 00:12:00,
2013-01-29 19:17:00,73.4,65.3,30.07,SW,227,5.0,12.0,76,0.00,,,0.01,meteohub,2013-01-30 00:17:00,
2013-01-29 19:22:00,73.6,65.5,30.07,SW,225,3.0,12.0,76,0.00,,,0.01,meteohub,2013-01-30 00:22:00,
2013-01-29 19:27:00,73.4,65.3,30.07,WSW,238,4.0,12.0,76,0.00,,,0.01,meteohub,2013-01-30 00:27:00,
2013-01-29 19:32:00,73.4,65.3,30.07,SSW,209,1.0,10.0,76,0.00,,,0.01,meteohub,2013-01-30 00:32:00,
2013-01-29 19:37:00,73.4,65.3,30.07,SW,230,3.0,10.0,76,0.00,,,0.01,meteohub,2013-01-30 00:37:00,
2013-01-29 19:42:00,73.4,65.3,30.07,SSW,209,5.0,8.0,76,0.00,,,0.01,meteohub,2013-01-30 00:42:00,
2013-01-29 19:47:00,73.6,65.5,30.08,SSE,148,5.0,8.0,76,0.00,,,0.01,meteohub,2013-01-30 00:47:00,
2013-01-29 19:52:00,73.6,65.5,30.08,South,184,3.0,9.0,76,0.00,,,0.01,meteohub,2013-01-30 00:52:00,
2013-01-29 19:57:00,73.6,65.5,30.08,South,178,5.0,9.0,76,0.00,,,0.01,meteohub,2013-01-30 00:57:00,
2013-01-29 20:02:00,73.6,65.8,30.08,WSW,251,3.0,9.0,77,0.00,,,0.01,meteohub,2013-01-30 01:02:00,
2013-01-29 20:07:00,73.6,65.8,30.08,SW,229,4.0,8.0,77,0.00,,,0.01,meteohub,2013-01-30 01:07:00,
2013-01-29 20:12:00,73.6,65.8,30.08,South,178,3.0,8.0,77,0.00,,,0.01,meteohub,2013-01-30 01:12:00,
2013-01-29 20:17:00,73.6,65.8,30.08,SW,214,2.0,8.0,77,0.00,,,0.01,meteohub,2013-01-30 01:17:00,
2013-01-29 20:22:00,73.6,66.4,30.08,SW,236,3.0,9.0,78,0.00,,,0.01,meteohub,2013-01-30 01:22:00,
2013-01-29 20:27:00,73.4,66.2,30.08,SSW,208,2.0,11.0,78,0.00,,,0.01,meteohub,2013-01-30 01:27:00,
2013-01-29 20:32:00,73.2,66.0,30.08,SW,232,4.0,11.0,78,0.00,,,0.01,meteohub,2013-01-30 01:32:00,
2013-01-29 20:37:00,73.0,66.2,30.08,SW,234,5.0,11.0,79,0.00,,,0.01,meteohub,2013-01-30 01:37:00,
2013-01-29 20:42:00,73.0,66.2,30.08,SSW,198,7.0,8.0,79,0.00,,,0.01,meteohub,2013-01-30 01:42:00,
2013-01-29 20:47:00,73.0,66.6,30.08,SSE,167,4.0,11.0,80,0.00,,,0.01,meteohub,2013-01-30 01:47:00,
2013-01-29 20:52:00,73.0,66.2,30.07,SSW,210,3.0,11.0,79,0.00,,,0.01,meteohub,2013-01-30 01:52:00,
2013-01-29 20:57:00,73.0,66.6,30.07,West,271,3.0,11.0,80,0.00,,,0.01,meteohub,2013-01-30 01:57:00,
2013-01-29 21:02:00,72.9,66.4,30.07,SW,232,2.0,8.0,80,0.00,,,0.01,meteohub,2013-01-30 02:02:00,
2013-01-29 21:07:00,72.9,66.4,30.07,SSE,166,3.0,9.0,80,0.00,,,0.01,meteohub,2013-01-30 02:07:00,
2013-01-29 21:12:00,72.7,66.2,30.06,SSE,167,8.0,9.0,80,0.00,,,0.01,meteohub,2013-01-30 02:12:00,
2013-01-29 21:17:00,72.5,66.4,30.06,SSW,201,1.0,9.0,81,0.00,,,0.01,meteohub,2013-01-30 02:17:00,
2013-01-29 21:22:00,72.3,66.2,30.06,South,183,4.0,12.0,81,0.00,,,0.01,meteohub,2013-01-30 02:22:00,
2013-01-29 21:27:00,72.1,66.0,30.06,SSE,167,5.0,12.0,81,0.00,,,0.01,meteohub,2013-01-30 02:27:00,
2013-01-29 21:32:00,72.1,66.4,30.06,SSE,165,8.0,12.0,82,0.00,,,0.01,meteohub,2013-01-30 02:32:00,
2013-01-29 21:37:00,72.0,66.2,30.06,West,278,2.0,9.0,82,0.00,,,0.01,meteohub,2013-01-30 02:37:00,
2013-01-29 21:42:00,72.0,66.2,30.06,SW,232,4.0,9.0,82,0.00,,,0.01,meteohub,2013-01-30 02:42:00,
2013-01-29 21:47:00,72.0,66.2,30.06,South,188,3.0,9.0,82,0.00,,,0.01,meteohub,2013-01-30 02:47:00,
2013-01-29 21:52:00,72.0,66.6,30.06,South,180,3.0,8.0,83,0.00,,,0.01,meteohub,2013-01-30 02:52:00,
2013-01-29 21:57:00,71.8,66.4,30.06,SSW,208,4.0,8.0,83,0.00,,,0.01,meteohub,2013-01-30 02:57:00,
2013-01-29 22:02:00,71.8,66.4,30.06,SW,228,3.0,8.0,83,0.00,,,0.01,meteohub,2013-01-30 03:02:00,
2013-01-29 22:07:00,71.8,66.7,30.06,SSE,167,5.0,8.0,84,0.00,,,0.01,meteohub,2013-01-30 03:07:00,
2013-01-29 22:12:00,71.8,66.7,30.06,SW,216,1.0,8.0,84,0.00,,,0.01,meteohub,2013-01-30 03:12:00,
2013-01-29 22:17:00,71.8,66.7,30.07,WSW,249,4.0,8.0,84,0.00,,,0.01,meteohub,2013-01-30 03:17:00,
2013-01-29 22:22:00,71.8,66.7,30.07,South,180,1.0,6.0,84,0.00,,,0.01,meteohub,2013-01-30 03:22:00,
2013-01-29 22:27:00,72.0,66.9,30.07,South,173,2.0,6.0,84,0.00,,,0.01,meteohub,2013-01-30 03:27:00,
2013-01-29 22:32:00,72.0,66.9,30.07,South,173,2.0,6.0,84,0.00,,,0.01,meteohub,2013-01-30 03:32:00,
2013-01-29 22:37:00,72.0,66.9,30.07,SSW,195,4.0,6.0,84,0.00,,,0.01,meteohub,2013-01-30 03:37:00,
2013-01-29 22:42:00,72.0,66.9,30.07,SSE,159,1.0,6.0,84,0.00,,,0.01,meteohub,2013-01-30 03:42:00,
2013-01-29 22:47:00,71.8,67.1,30.07,SSE,167,1.0,5.0,85,0.00,,,0.01,meteohub,2013-01-30 03:47:00,
2013-01-29 22:52:00,71.8,67.1,30.07,SSW,198,2.0,5.0,85,0.00,,,0.01,meteohub,2013-01-30 03:52:00,
2013-01-29 22:59:00,71.6,66.9,30.07,SSW,192,1.0,5.0,85,0.00,,,0.01,meteohub,2013-01-30 03:59:00,
2013-01-29 23:06:00,71.6,66.9,30.07,SSE,168,1.0,4.0,85,0.00,,,0.01,meteohub,2013-01-30 04:06:00,
2013-01-29 23:12:00,71.6,66.9,30.07,SW,215,3.0,4.0,85,0.00,,,0.01,meteohub,2013-01-30 04:12:00,
2013-01-29 23:17:00,71.4,66.7,30.07,SSW,198,1.0,4.0,85,0.00,,,0.01,meteohub,2013-01-30 04:17:00,
2013-01-29 23:22:00,71.6,66.9,30.08,SW,221,0.0,5.0,85,0.00,,,0.01,meteohub,2013-01-30 04:22:00,
2013-01-29 23:27:00,71.4,66.7,30.08,SSE,154,2.0,5.0,85,0.00,,,0.01,meteohub,2013-01-30 04:27:00,
2013-01-29 23:32:00,71.4,66.7,30.08,SSW,198,1.0,5.0,85,0.00,,,0.01,meteohub,2013-01-30 04:32:00,
2013-01-29 23:37:00,71.4,66.7,30.08,SE,140,4.0,5.0,85,0.00,,,0.01,meteohub,2013-01-30 04:37:00,
2013-01-29 23:42:00,71.6,66.9,30.08,SSW,213,1.0,6.0,85,0.00,,,0.01,meteohub,2013-01-30 04:42:00,
2013-01-29 23:47:00,71.4,66.7,30.07,SSW,207,1.0,6.0,85,0.00,,,0.01,meteohub,2013-01-30 04:47:00,
2013-01-29 23:52:00,71.4,66.7,30.07,SSE,160,2.0,6.0,85,0.00,,,0.01,meteohub,2013-01-30 04:52:00,
2013-01-29 23:57:00,71.4,66.7,30.06,South,184,2.0,7.0,85,0.00,,,0.01,meteohub,2013-01-30 04:57:00,